Location: Bourg-d�Oueil
(42.8588°N, 0.4991°E)
Time: 19:03:04
(UTC+00:00)

Cosmos 1459 Rocket - Pass Details

Date: 16 June 2021
Orbit: 937 x 999 km, 83.0° (Epoch: 01 August)

Event Time Altitude Azimuth Distance (km) Brightness Sun altitude
Rises 21:01:49 0° 356° (N) 3,611 7.9 -12.2°
Reaches altitude 10° 21:04:23 10° 2° (N) 2,660 7.0 -12.5°
Maximum altitude 21:10:17 52° 78° (ENE) 1,149 4.2 -13.2°
Enters shadow 21:14:33 19° 149° (SSE) 2,081 5.1 -13.7°
